Miscellaneous Local Product
Issued by NWS Hastings, NE

Home | Current Version | Previous Version | Text Only | Print | Product List | Glossary Off
Versions: 1 2 3 4 5 6 7 8 9 10 11 12 13 14 15 16 17 18 19 20 21 22 23 24 25 26 27 28 29 30 31 32 33 34 35 36 37 38 39 40 41 42 43 44 45 46 47 48 49 50

000
AXUS43 KGID 191102
MISGRI

GID CWA HOURLY WEATHER ROUNDUP
NATIONAL WEATHER SERVICE HASTINGS NE
600 AM CDT SUN OCT 19 2014

NOTE: "FAIR" INDICATES FEW OR NO CLOUDS BELOW 12,000 FEET WITH NO
SIGNIFICANT WEATHER AND/OR OBSTRUCTIONS TO VISIBILITY.

...SOUTH CENTRAL NEBRASKA...

CITY           SKY/WX    TMP DP  RH WIND       PRES   REMARKS
GRAND ISLAND   CLEAR     46  39  76 S8        30.07F
HASTINGS       CLEAR     42  37  82 S6        30.08S
KEARNEY        CLEAR     45  39  81 S12       30.07S
ORD            CLEAR     45  40  82 S7        30.02S
YORK           CLEAR     41  37  87 S7        30.09F
AURORA         CLEAR     43  38  83 S8        30.08S
LEXINGTON      CLEAR     43  40  90 S3        30.05S
HOLDREGE       CLEAR     43  40  88 CALM      30.06S
HEBRON         CLEAR     43  38  83 S3        30.11F

...NEBRASKA PANHANDLE...

CITY           SKY/WX    TMP DP  RH WIND       PRES   REMARKS
CHADRON        CLEAR     40  38  93 W3        30.01R
ALLIANCE       PTCLDY    31  29  92 SW3       30.01R
SCOTTSBLUFF    CLEAR     40  38  93 NW8       30.03R WCI  34
SIDNEY         CLEAR     39  35  86 NW12      30.02R WCI  32

...WESTERN AND NORTH CENTRAL NEBRASKA...

CITY           SKY/WX    TMP DP  RH WIND       PRES   REMARKS
VALENTINE      PTCLDY    43  38  82 W5        29.97R
AINSWORTH      CLEAR     47  40  74 SW9       29.97S
ONEILL         CLEAR     47  43  84 S9        29.98S
BROKEN BOW     CLEAR     44  40  85 S7        30.02F
IMPERIAL       CLEAR     40  37  89 S5        30.01F
NORTH PLATTE   CLEAR     45  39  79 S6        30.03S
MCCOOK         CLEAR     43  38  82 CALM      30.04S

...EASTERN NEBRASKA...

CITY           SKY/WX    TMP DP  RH WIND       PRES   REMARKS
NORFOLK        CLEAR     44  38  79 S13       30.03F
SO SIOUX CITY  CLEAR     45  40  82 SE8       30.05F
TEKAMAH        CLEAR     43  39  86 S10       30.08F
COLUMBUS       CLEAR     45  36  70 SW13      30.08F
ALBION         CLEAR     43  37  79 SE5       30.04F
OMAHA EPPLEY   CLEAR     42  39  89 SE9       30.12F
OFFUTT AFB     CLEAR     38  38  99 E3        30.11F
MILLARD        CLEAR     41  39  93 CALM      30.11F
LINCOLN        CLEAR     41  37  86 SE5       30.12F
NEBRASKA CITY  CLEAR     38  38  99 S6        30.13F WCI  34
BEATRICE       CLEAR     41  39  92 S8        30.12F
FALLS CITY     CLEAR     37  36  96 SE6       30.15S WCI  32

...NORTHERN KANSAS...

CITY           SKY/WX    TMP DP  RH WIND       PRES   REMARKS
GOODLAND       CLEAR     44  42  93 S8        30.04S
HILL CITY      PTCLDY    49  41  74 S6        30.07F
NORTON         SUNNY     45  39  81 SE7       30.04F
PHILLIPSBURG   CLEAR     45  43  93 E6        30.08S
SMITH CENTER   CLEAR     39  37  93 SE7       30.10S WCI  34
BELOIT         CLEAR     43  39  87 CALM      30.11S
HAYS           PTCLDY    45  36  70 S6        30.10S
RUSSELL        CLEAR     46  41  82 S12       30.09F
CONCORDIA      PTCLDY    48  43  82 S15       30.11F
SALINA         CLEAR     43  40  89 S6        30.15S
TOPEKA         CLOUDY    41  39  93 CALM      30.18S



USA.gov is the U.S. government's official web portal to all federal, state and local government web resources and services.